| time (UTC) | temp F | wind direction | speed MPH | gust MPH | rain 1hr in | rain 24hr in | rain mn in | humidity % | barometer mb |
| 20260502194554 | 78 | 200 | 9.0 | 0.0 | 0.00 | 0.00 | 0.00 | 100 | 1009.0 |
| 20260502193055 | 78 | 200 | 9.0 | 0.0 | 0.00 | 0.00 | 0.00 | 100 | 1009.0 |
| 20260502191554 | 78 | 200 | 9.0 | 0.0 | 0.00 | 0.00 | 0.00 | 100 | 1009.0 |
| 20260502190055 | 78 | 200 | 9.0 | 0.0 | 0.00 | 0.00 | 0.00 | 100 | 1009.0 |
| 20260502184554 | 78 | 200 | 9.0 | 0.0 | 0.00 | 0.00 | 0.00 | 100 | 1009.0 |
| 20260502183055 | 78 | 200 | 9.0 | 0.0 | 0.00 | 0.00 | 0.00 | 100 | 1009.0 |
| 20260502181554 | 78 | 200 | 9.0 | 0.0 | 0.00 | 0.00 | 0.00 | 100 | 1009.0 |
| 20260502163054 | 78 | 200 | 9.0 | 0.0 | 0.00 | 0.00 | 0.00 | 100 | 1010.0 |
| 20260502161554 | 78 | 200 | 9.0 | 0.0 | 0.00 | 0.00 | 0.00 | 100 | 1010.0 |
| 20260502151554 | 78 | 200 | 9.0 | 0.0 | 0.00 | 0.00 | 0.00 | 100 | 1010.0 |
| 20260502123054 | 86 | 300 | 9.0 | 0.0 | 0.01 | 0.00 | 0.00 | 74 | 1010.0 |
| 20260502121554 | 86 | 300 | 9.0 | 0.0 | 0.00 | 0.00 | 0.00 | 74 | 1009.0 |
| 20260502114554 | 84 | 310 | 9.0 | 0.0 | 0.00 | 0.00 | 0.00 | 79 | 1009.0 |
| 20260502113054 | 82 | 320 | 8.0 | 0.0 | 0.00 | 0.00 | 0.00 | 84 | 1009.0 |
| 20260502111554 | 82 | 320 | 8.0 | 0.0 | 0.00 | 0.00 | 0.00 | 84 | 1008.0 |
| 20260502110054 | 82 | 320 | 8.0 | 0.0 | 0.00 | 0.00 | 0.00 | 84 | 1008.0 |
| 20260502104554 | 84 | 320 | 8.0 | 0.0 | 0.00 | 0.00 | 0.00 | 84 | 1008.0 |
| 20260502103055 | 85 | 330 | 10.0 | 0.0 | 0.00 | 0.00 | 0.00 | 70 | 1008.0 |
| 20260502101554 | 85 | 330 | 10.0 | 0.0 | 0.00 | 0.00 | 0.00 | 70 | 1007.0 |
| 20260502070056 | 88 | 350 | 10.0 | 0.0 | 0.00 | 0.00 | 0.00 | 69 | 1007.0 |
| 20260502064555 | 88 | 350 | 10.0 | 0.0 | 0.00 | 0.00 | 0.00 | 69 | 1007.0 |
| 20260502063055 | 88 | 350 | 10.0 | 0.0 | 0.00 | 0.00 | 0.00 | 69 | 1007.0 |
| 20260502061554 | 88 | 350 | 10.0 | 0.0 | 0.00 | 0.00 | 0.00 | 69 | 1008.0 |
| 20260502060058 | 88 | 110 | 10.0 | 0.0 | 0.00 | 0.00 | 0.00 | 69 | 1008.0 |
| 20260502054555 | 88 | 110 | 10.0 | 0.0 | 0.00 | 0.00 | 0.00 | 69 | 1008.0 |
| 20260502053055 | 88 | 110 | 10.0 | 0.0 | 0.00 | 0.00 | 0.00 | 69 | 1008.0 |
| 20260502051555 | 88 | 110 | 10.0 | 0.0 | 0.00 | 0.00 | 0.00 | 70 | 1009.0 |
| 20260502050055 | 88 | 110 | 10.0 | 0.0 | 0.00 | 0.00 | 0.00 | 70 | 1008.0 |
| 20260502044554 | 87 | 110 | 10.0 | 0.0 | 0.00 | 0.00 | 0.00 | 70 | 1009.0 |
| 20260502043055 | 87 | 110 | 10.0 | 0.0 | 0.00 | 0.00 | 0.00 | 70 | 1009.0 |
| 20260502041554 | 86 | 110 | 10.0 | 0.0 | 0.00 | 0.00 | 0.00 | 70 | 1009.0 |
| 20260502040056 | 86 | 110 | 10.0 | 0.0 | 0.00 | 0.00 | 0.00 | 70 | 1009.0 |
| 20260502034554 | 86 | 110 | 10.0 | 0.0 | 0.00 | 0.00 | 0.00 | 71 | 1009.0 |
| 20260502033054 | 86 | 100 | 10.0 | 0.0 | 0.00 | 0.00 | 0.00 | 71 | 1010.0 |
| 20260502031554 | 86 | 100 | 10.0 | 0.0 | 0.00 | 0.00 | 0.00 | 71 | 1010.0 |
| 20260502030055 | 85 | 100 | 10.0 | 0.0 | 0.00 | 0.00 | 0.00 | 72 | 1010.0 |
| 20260502024554 | 84 | 100 | 10.0 | 0.0 | 0.00 | 0.00 | 0.00 | 73 | 1010.0 |
| 20260502023054 | 84 | 110 | 9.0 | 0.0 | 0.00 | 0.00 | 0.00 | 75 | 1010.0 |
| 20260502021554 | 84 | 110 | 9.0 | 0.0 | 0.00 | 0.00 | 0.00 | 77 | 1010.0 |
| 20260502020055 | 84 | 110 | 8.0 | 0.0 | 0.00 | 0.00 | 0.00 | 77 | 1010.0 |
| 20260502014554 | 84 | 110 | 8.0 | 0.0 | 0.00 | 0.00 | 0.00 | 79 | 1010.0 |
| 20260502013054 | 83 | 110 | 8.0 | 0.0 | 0.00 | 0.00 | 0.00 | 81 | 1010.0 |
| 20260502011554 | 82 | 110 | 8.0 | 0.0 | 0.00 | 0.00 | 0.00 | 84 | 1010.0 |
| 20260502010055 | 82 | 110 | 8.0 | 0.0 | 0.00 | 0.00 | 0.00 | 84 | 1010.0 |
| 20260502004554 | 82 | 110 | 8.0 | 0.0 | 0.00 | 0.00 | 0.00 | 84 | 1010.0 |
| 20260502003054 | 81 | 110 | 8.0 | 0.0 | 0.00 | 0.00 | 0.00 | 86 | 1010.0 |
| 20260502001554 | 80 | 110 | 8.0 | 0.0 | 0.00 | 0.00 | 0.00 | 89 | 1010.0 |
| 20260502000056 | 80 | 100 | 8.0 | 0.0 | 0.00 | 0.00 | 0.00 | 89 | 1010.0 |
| 20260501234554 | 80 | 100 | 8.0 | 0.0 | 0.00 | 0.00 | 0.00 | 90 | 1010.0 |
| 20260501233054 | 79 | 130 | 5.0 | 0.0 | 0.00 | 0.00 | 0.00 | 90 | 1010.0 |
| 20260501231554 | 78 | 130 | 5.0 | 0.0 | 0.00 | 0.00 | 0.00 | 91 | 1009.0 |
| 20260501230054 | 78 | 130 | 5.0 | 0.0 | 0.00 | 0.00 | 0.00 | 91 | 1009.0 |